There are multiple Weather-warnings   Click here for more information


Meteo18 Weather Cam more information Meteo18 Weather Cam


warning for Thunderstorms more information blitzortung!


Rain radar more information rain snow radar


Visit our other weather sites:

Template documentation
and downloads

And another site



Weather Underground History page Text

Daily Summary for August 21, 2017 Units:  Metric    English   Both
« Previous Day
Next Day »
Daily Weekly Monthly Yearly Custom
  High: Low: Average:
Temperature: 27.2 °C 12.4 °C 19.3 °C
Dew Point: 15.7 °C 10.1 °C 12.8 °C
Humidity: 90 % 47 % 68 %
Wind Speed: 9.7 km/h 0.0 km/h 2.1 km/h
Wind Gust: 16.1 km/h - -
Wind:- - ESE
Pressure: 1026.0 hPa 1021.2 hPa -
Precipitation: 0.0 mm    
Historical Graphs
 
 
Tabular Data for August 21, 2017
Time Temperature Dew Point Pressure Wind Wind Speed Wind Gust Humidity Rainfall Rate (Hourly)
00:02 14.0 °C 11.0 °C 1026.0 hPa Calm   1.6 km/h 82 % 0.0 mm
00:12 14.0 °C 10.8 °C 1026.0 hPa Calm   1.6 km/h 81 % 0.0 mm
00:17 13.8 °C 10.8 °C 1026.0 hPa Calm   1.6 km/h 82 % 0.0 mm
00:22 13.9 °C 10.7 °C 1026.0 hPa Calm   1.6 km/h 81 % 0.0 mm
00:32 14.2 °C 10.8 °C 1026.0 hPa Calm   1.6 km/h 80 % 0.0 mm
00:37 14.1 °C 10.7 °C 1026.0 hPa Calm   1.6 km/h 80 % 0.0 mm
00:42 14.1 °C 10.7 °C 1026.0 hPa Calm   1.6 km/h 80 % 0.0 mm
00:52 13.6 °C 10.8 °C 1026.0 hPa Calm   1.6 km/h 83 % 0.0 mm
00:57 13.4 °C 10.8 °C 1026.0 hPa Calm   1.6 km/h 84 % 0.0 mm
01:02 13.2 °C 10.6 °C 1026.0 hPa WNW 1.6 km/h 1.6 km/h 84 % 0.0 mm
01:09 13.1 °C 10.5 °C 1026.0 hPa Calm   3.2 km/h 84 % 0.0 mm
01:17 13.1 °C 10.6 °C 1026.0 hPa WNW 1.6 km/h 3.2 km/h 85 % 0.0 mm
01:22 13.2 °C 10.6 °C 1026.0 hPa Calm   1.6 km/h 84 % 0.0 mm
01:29 13.4 °C 10.6 °C 1026.0 hPa Calm   1.6 km/h 83 % 0.0 mm
01:37 13.3 °C 10.5 °C 1026.0 hPa Calm   1.6 km/h 83 % 0.0 mm
01:42 13.2 °C 10.4 °C 1025.6 hPa Calm   1.6 km/h 83 % 0.0 mm
01:47 13.2 °C 10.6 °C 1025.6 hPa Calm   1.6 km/h 84 % 0.0 mm
01:52 13.1 °C 10.5 °C 1025.6 hPa Calm   1.6 km/h 84 % 0.0 mm
01:57 12.9 °C 10.4 °C 1025.6 hPa Calm   1.6 km/h 85 % 0.0 mm
02:02 12.9 °C 10.4 °C 1025.6 hPa Calm   1.6 km/h 85 % 0.0 mm
02:12 13.4 °C 10.4 °C 1025.6 hPa Calm   3.2 km/h 82 % 0.0 mm
02:17 13.4 °C 10.4 °C 1026.0 hPa Calm   3.2 km/h 82 % 0.0 mm
02:22 13.3 °C 10.3 °C 1025.6 hPa Calm   3.2 km/h 82 % 0.0 mm
02:32 13.3 °C 10.3 °C 1025.6 hPa Calm   1.6 km/h 82 % 0.0 mm
02:42 13.1 °C 10.3 °C 1025.6 hPa Calm     83 % 0.0 mm
02:47 12.9 °C 10.3 °C 1025.6 hPa Calm     84 % 0.0 mm
02:52 12.8 °C 10.3 °C 1025.6 hPa Calm     85 % 0.0 mm
03:02 12.8 °C 10.3 °C 1025.6 hPa Calm     85 % 0.0 mm
03:12 12.7 °C 10.2 °C 1025.6 hPa Calm     85 % 0.0 mm
03:17 12.5 °C 10.2 °C 1025.6 hPa Calm     86 % 0.0 mm
03:22 12.5 °C 10.2 °C 1025.6 hPa Calm     86 % 0.0 mm
03:32 12.4 °C 10.1 °C 1025.6 hPa Calm     86 % 0.0 mm
03:42 12.4 °C 10.1 °C 1025.6 hPa Calm     86 % 0.0 mm
03:47 12.4 °C 10.1 °C 1025.6 hPa Calm     86 % 0.0 mm
03:52 12.4 °C 10.1 °C 1025.3 hPa Calm     86 % 0.0 mm
03:57 12.4 °C 10.3 °C 1025.3 hPa Calm     87 % 0.0 mm
04:02 12.5 °C 10.4 °C 1025.6 hPa Calm     87 % 0.0 mm
04:07 12.6 °C 10.3 °C 1025.3 hPa Calm     86 % 0.0 mm
04:12 12.7 °C 10.6 °C 1025.3 hPa Calm     87 % 0.0 mm
04:17 12.7 °C 10.6 °C 1025.3 hPa Calm     87 % 0.0 mm
04:22 12.8 °C 10.7 °C 1025.3 hPa Calm     87 % 0.0 mm
04:32 12.9 °C 11.0 °C 1025.3 hPa Calm     88 % 0.0 mm
04:42 13.0 °C 11.1 °C 1025.3 hPa Calm     88 % 0.0 mm
04:47 13.1 °C 11.0 °C 1025.3 hPa Calm     87 % 0.0 mm
04:52 13.2 °C 11.1 °C 1025.3 hPa Calm     87 % 0.0 mm
05:02 13.3 °C 11.2 °C 1025.3 hPa Calm     87 % 0.0 mm
05:12 13.4 °C 11.3 °C 1025.3 hPa Calm     87 % 0.0 mm
05:22 13.4 °C 11.3 °C 1024.9 hPa Calm     87 % 0.0 mm
05:32 13.4 °C 11.3 °C 1024.9 hPa Calm     87 % 0.0 mm
05:42 13.3 °C 11.4 °C 1024.9 hPa Calm     88 % 0.0 mm
05:52 13.3 °C 11.4 °C 1024.9 hPa Calm     88 % 0.0 mm
05:57 13.3 °C 11.4 °C 1024.9 hPa Calm     88 % 0.0 mm
06:02 13.3 °C 11.4 °C 1024.9 hPa Calm     88 % 0.0 mm
06:12 13.4 °C 11.5 °C 1024.9 hPa Calm     88 % 0.0 mm
06:17 13.5 °C 11.6 °C 1024.9 hPa Calm     88 % 0.0 mm
06:22 13.5 °C 11.6 °C 1024.9 hPa Calm     88 % 0.0 mm
06:32 13.6 °C 11.6 °C 1024.9 hPa Calm     88 % 0.0 mm
06:37 13.6 °C 11.8 °C 1024.9 hPa Calm     89 % 0.0 mm
06:42 13.7 °C 11.9 °C 1024.9 hPa Calm     89 % 0.0 mm
06:52 13.7 °C 12.1 °C 1024.9 hPa Calm     90 % 0.0 mm
06:57 13.8 °C 12.2 °C 1024.9 hPa Calm     90 % 0.0 mm
07:02 13.8 °C 12.0 °C 1024.9 hPa Calm     89 % 0.0 mm
07:12 13.8 °C 11.8 °C 1024.9 hPa Calm     88 % 0.0 mm
07:17 13.9 °C 12.1 °C 1024.9 hPa Calm     89 % 0.0 mm
07:22 13.8 °C 11.7 °C 1024.9 hPa Calm     87 % 0.0 mm
07:32 14.1 °C 11.8 °C 1024.9 hPa Calm     86 % 0.0 mm
07:37 14.1 °C 11.6 °C 1024.9 hPa Calm     85 % 0.0 mm
07:42 14.2 °C 11.4 °C 1024.9 hPa Calm     83 % 0.0 mm
07:52 14.4 °C 11.5 °C 1024.9 hPa Calm     83 % 0.0 mm
07:57 14.6 °C 11.7 °C 1024.9 hPa Calm     83 % 0.0 mm
08:02 14.7 °C 11.5 °C 1025.3 hPa Calm     81 % 0.0 mm
08:12 15.2 °C 11.8 °C 1025.3 hPa Calm     80 % 0.0 mm
08:17 15.2 °C 11.6 °C 1025.3 hPa Calm     79 % 0.0 mm
08:22 15.2 °C 11.6 °C 1025.3 hPa Calm     79 % 0.0 mm
08:32 15.0 °C 11.8 °C 1025.3 hPa Calm     81 % 0.0 mm
08:42 15.2 °C 11.8 °C 1025.3 hPa Calm     80 % 0.0 mm
08:47 15.3 °C 12.1 °C 1025.3 hPa Calm     81 % 0.0 mm
08:57 15.9 °C 12.3 °C 1024.9 hPa Calm   1.6 km/h 79 % 0.0 mm
09:07 16.4 °C 12.0 °C 1024.9 hPa SSW 3.2 km/h 6.4 km/h 75 % 0.0 mm
09:12 16.7 °C 12.2 °C 1025.3 hPa SSW 1.6 km/h 6.4 km/h 75 % 0.0 mm
09:17 16.9 °C 12.0 °C 1025.3 hPa Calm   6.4 km/h 73 % 0.0 mm
09:22 17.3 °C 12.2 °C 1024.9 hPa SSW 1.6 km/h 6.4 km/h 72 % 0.0 mm
09:27 17.6 °C 12.5 °C 1024.9 hPa SSE 3.2 km/h 3.2 km/h 72 % 0.0 mm
09:32 17.7 °C 12.4 °C 1024.9 hPa SSW 1.6 km/h 3.2 km/h 71 % 0.0 mm
09:42 18.3 °C 12.3 °C 1024.9 hPa WSW 3.2 km/h 6.4 km/h 68 % 0.0 mm
09:52 18.4 °C 11.9 °C 1024.9 hPa SW 3.2 km/h 6.4 km/h 66 % 0.0 mm
09:57 18.6 °C 12.1 °C 1024.9 hPa SSE 1.6 km/h 8.0 km/h 66 % 0.0 mm
10:02 18.9 °C 12.2 °C 1024.9 hPa SW 8.0 km/h 8.0 km/h 65 % 0.0 mm
10:12 19.3 °C 12.8 °C 1024.9 hPa SW 8.0 km/h 9.7 km/h 66 % 0.0 mm
10:22 19.4 °C 12.2 °C 1024.9 hPa SW 3.2 km/h 9.7 km/h 63 % 0.0 mm
10:32 19.8 °C 12.6 °C 1024.9 hPa SSW 6.4 km/h 9.7 km/h 63 % 0.0 mm
10:42 19.9 °C 11.6 °C 1024.9 hPa South 4.8 km/h 8.0 km/h 59 % 0.0 mm
10:47 20.1 °C 12.1 °C 1024.9 hPa WSW 3.2 km/h 9.7 km/h 60 % 0.0 mm
10:52 20.2 °C 11.7 °C 1024.9 hPa SSW 6.4 km/h 9.7 km/h 58 % 0.0 mm
10:57 20.2 °C 11.7 °C 1024.9 hPa SW 8.0 km/h 11.3 km/h 58 % 0.0 mm
11:02 20.3 °C 12.3 °C 1024.9 hPa SSW 1.6 km/h 11.3 km/h 60 % 0.0 mm
11:12 21.1 °C 12.5 °C 1024.6 hPa SW 6.4 km/h 11.3 km/h 58 % 0.0 mm
11:17 21.1 °C 12.0 °C 1024.6 hPa Calm   8.0 km/h 56 % 0.0 mm
11:22 21.3 °C 11.6 °C 1024.6 hPa South 3.2 km/h 8.0 km/h 54 % 0.0 mm
11:32 21.6 °C 11.9 °C 1024.3 hPa Calm   8.0 km/h 54 % 0.0 mm
11:42 22.0 °C 12.0 °C 1024.3 hPa SSW 1.6 km/h 9.7 km/h 53 % 0.0 mm
11:52 22.4 °C 12.3 °C 1024.6 hPa Calm   8.0 km/h 53 % 0.0 mm
12:02 22.8 °C 11.8 °C 1024.6 hPa Calm   6.4 km/h 50 % 0.0 mm
12:12 22.6 °C 11.9 °C 1024.3 hPa ENE 6.4 km/h 6.4 km/h 51 % 0.0 mm
12:17 22.4 °C 11.8 °C 1024.3 hPa ENE 1.6 km/h 6.4 km/h 51 % 0.0 mm
12:22 22.6 °C 12.2 °C 1024.3 hPa Calm   6.4 km/h 52 % 0.0 mm
12:32 22.4 °C 12.1 °C 1024.3 hPa SSW 1.6 km/h 11.3 km/h 52 % 0.0 mm
12:42 23.6 °C 12.6 °C 1024.3 hPa ENE 4.8 km/h 8.0 km/h 50 % 0.0 mm
12:47 23.6 °C 12.3 °C 1024.3 hPa East 8.0 km/h 8.0 km/h 49 % 0.0 mm
12:52 22.7 °C 12.0 °C 1024.3 hPa SW 6.4 km/h 8.0 km/h 51 % 0.0 mm
13:02 23.3 °C 12.6 °C 1024.3 hPa NNE 4.8 km/h 9.7 km/h 51 % 0.0 mm
13:07 23.5 °C 13.1 °C 1024.3 hPa NNW 6.4 km/h 14.5 km/h 52 % 0.0 mm
13:12 23.6 °C 12.9 °C 1024.3 hPa ENE 6.4 km/h 14.5 km/h 51 % 0.0 mm
13:17 23.3 °C 12.6 °C 1023.9 hPa East 4.8 km/h 16.1 km/h 51 % 0.0 mm
13:22 23.3 °C 12.9 °C 1023.9 hPa North 4.8 km/h 16.1 km/h 52 % 0.0 mm
13:32 23.6 °C 12.6 °C 1023.9 hPa NW 1.6 km/h 14.5 km/h 50 % 0.0 mm
13:42 23.7 °C 12.7 °C 1023.6 hPa NNE 4.8 km/h 8.0 km/h 50 % 0.0 mm
13:47 23.9 °C 13.4 °C 1023.6 hPa North 6.4 km/h 8.0 km/h 52 % 0.0 mm
13:52 24.0 °C 13.2 °C 1023.6 hPa Calm   8.0 km/h 51 % 0.0 mm
14:02 24.5 °C 13.1 °C 1023.6 hPa NNW 3.2 km/h 9.7 km/h 49 % 0.0 mm
14:07 24.3 °C 13.5 °C 1023.6 hPa NE 3.2 km/h 6.4 km/h 51 % 0.0 mm
14:12 24.5 °C 13.4 °C 1023.6 hPa NNE 4.8 km/h 6.4 km/h 50 % 0.0 mm
14:17 24.5 °C 13.1 °C 1023.2 hPa NE 4.8 km/h 11.3 km/h 49 % 0.0 mm
14:22 24.2 °C 13.1 °C 1023.2 hPa NW 1.6 km/h 11.3 km/h 50 % 0.0 mm
14:32 24.8 °C 13.7 °C 1023.2 hPa Calm   11.3 km/h 50 % 0.0 mm
14:42 25.3 °C 13.5 °C 1023.2 hPa SE 1.6 km/h 4.8 km/h 48 % 0.0 mm
14:47 25.4 °C 13.6 °C 1023.2 hPa SSW 3.2 km/h 4.8 km/h 48 % 0.0 mm
14:57 25.7 °C 13.5 °C 1023.2 hPa NNE 3.2 km/h 8.0 km/h 47 % 0.0 mm
15:02 25.4 °C 13.3 °C 1022.9 hPa Calm   8.0 km/h 47 % 0.0 mm
15:12 25.7 °C 13.9 °C 1022.9 hPa ENE 3.2 km/h 8.0 km/h 48 % 0.0 mm
15:17 25.7 °C 13.5 °C 1022.9 hPa ENE 3.2 km/h 8.0 km/h 47 % 0.0 mm
15:22 25.4 °C 13.6 °C 1022.9 hPa ENE 9.7 km/h 11.3 km/h 48 % 0.0 mm
15:32 25.0 °C 13.5 °C 1022.6 hPa Calm   11.3 km/h 49 % 0.0 mm
15:37 25.1 °C 13.6 °C 1022.6 hPa Calm   11.3 km/h 49 % 0.0 mm
15:42 25.6 °C 14.1 °C 1022.6 hPa ENE 4.8 km/h 9.7 km/h 49 % 0.0 mm
15:47 25.7 °C 13.9 °C 1022.6 hPa Calm   8.0 km/h 48 % 0.0 mm
15:52 26.0 °C 14.1 °C 1022.6 hPa North 3.2 km/h 6.4 km/h 48 % 0.0 mm
16:02 25.9 °C 14.0 °C 1022.2 hPa WSW 8.0 km/h 8.0 km/h 48 % 0.0 mm
16:07 25.8 °C 14.6 °C 1022.2 hPa Calm   8.0 km/h 50 % 0.0 mm
16:17 26.1 °C 14.2 °C 1022.2 hPa NE 6.4 km/h 8.0 km/h 48 % 0.0 mm
16:22 26.2 °C 14.3 °C 1022.2 hPa NE 3.2 km/h 9.7 km/h 48 % 0.0 mm
16:32 26.2 °C 14.3 °C 1022.2 hPa SSW 1.6 km/h 9.7 km/h 48 % 0.0 mm
16:42 26.6 °C 14.4 °C 1022.2 hPa WSW 4.8 km/h 8.0 km/h 47 % 0.0 mm
16:47 26.7 °C 14.5 °C 1022.2 hPa Calm   9.7 km/h 47 % 0.0 mm
16:52 26.9 °C 14.6 °C 1022.2 hPa Calm   9.7 km/h 47 % 0.0 mm
17:02 26.9 °C 14.6 °C 1021.9 hPa WNW 4.8 km/h 8.0 km/h 47 % 0.0 mm
17:12 26.4 °C 14.8 °C 1021.9 hPa NNW 3.2 km/h 8.0 km/h 49 % 0.0 mm
17:17 26.3 °C 14.4 °C 1021.9 hPa North 4.8 km/h 14.5 km/h 48 % 0.0 mm
17:22 26.3 °C 14.1 °C 1021.9 hPa NNE 1.6 km/h 14.5 km/h 47 % 0.0 mm
17:32 26.2 °C 14.3 °C 1021.9 hPa South 1.6 km/h 14.5 km/h 48 % 0.0 mm
17:37 26.7 °C 14.8 °C 1021.9 hPa Calm   6.4 km/h 48 % 0.0 mm
17:42 26.4 °C 14.5 °C 1021.9 hPa East 3.2 km/h 6.4 km/h 48 % 0.0 mm
17:52 26.0 °C 14.5 °C 1021.9 hPa Calm   8.0 km/h 49 % 0.0 mm
18:02 25.8 °C 14.3 °C 1021.6 hPa East 3.2 km/h 8.0 km/h 49 % 0.0 mm
18:07 25.9 °C 14.4 °C 1021.6 hPa ENE 3.2 km/h 8.0 km/h 49 % 0.0 mm
18:17 26.0 °C 14.5 °C 1021.6 hPa WNW 6.4 km/h 9.7 km/h 49 % 0.0 mm
18:22 26.1 °C 14.5 °C 1021.6 hPa Calm   9.7 km/h 49 % 0.0 mm
18:32 27.2 °C 14.9 °C 1021.6 hPa North 3.2 km/h 6.4 km/h 47 % 0.0 mm
18:42 26.4 °C 14.5 °C 1021.6 hPa NE 9.7 km/h 9.7 km/h 48 % 0.0 mm
18:52 25.9 °C 15.0 °C 1021.6 hPa NE 6.4 km/h 11.3 km/h 51 % 0.0 mm
18:57 25.8 °C 14.9 °C 1021.6 hPa NE 1.6 km/h 11.3 km/h 51 % 0.0 mm
19:02 25.7 °C 14.8 °C 1021.6 hPa ENE 8.0 km/h 11.3 km/h 51 % 0.0 mm
19:12 25.3 °C 14.7 °C 1021.6 hPa ENE 8.0 km/h 14.5 km/h 52 % 0.0 mm
19:17 25.2 °C 14.9 °C 1021.6 hPa NNE 6.4 km/h 11.3 km/h 53 % 0.0 mm
19:22 25.3 °C 15.0 °C 1021.6 hPa NE 6.4 km/h 11.3 km/h 53 % 0.0 mm
19:32 25.4 °C 14.8 °C 1021.2 hPa NE 3.2 km/h 9.7 km/h 52 % 0.0 mm
19:42 25.3 °C 15.0 °C 1021.2 hPa NE 6.4 km/h 9.7 km/h 53 % 0.0 mm
19:52 25.1 °C 14.8 °C 1021.2 hPa NE 3.2 km/h 11.3 km/h 53 % 0.0 mm
19:57 25.1 °C 14.8 °C 1021.2 hPa NE 9.7 km/h 12.9 km/h 53 % 0.0 mm
20:02 24.9 °C 15.2 °C 1021.2 hPa NNE 6.4 km/h 12.9 km/h 55 % 0.0 mm
20:12 24.6 °C 15.2 °C 1021.2 hPa NE 4.8 km/h 14.5 km/h 56 % 0.0 mm
20:17 24.4 °C 15.3 °C 1021.2 hPa NNE 6.4 km/h 9.7 km/h 57 % 0.0 mm
20:22 24.3 °C 15.2 °C 1021.2 hPa NE 6.4 km/h 9.7 km/h 57 % 0.0 mm
20:32 23.9 °C 15.4 °C 1021.2 hPa NNE 6.4 km/h 11.3 km/h 59 % 0.0 mm
20:42 23.4 °C 15.4 °C 1021.6 hPa NE 3.2 km/h 8.0 km/h 61 % 0.0 mm
20:47 23.1 °C 15.7 °C 1021.6 hPa North 4.8 km/h 8.0 km/h 63 % 0.0 mm
20:52 22.8 °C 15.4 °C 1021.6 hPa NNE 6.4 km/h 8.0 km/h 63 % 0.0 mm
20:57 22.7 °C 15.5 °C 1021.6 hPa NE 1.6 km/h 8.0 km/h 64 % 0.0 mm
21:02 22.4 °C 15.5 °C 1021.6 hPa Calm   8.0 km/h 65 % 0.0 mm
21:07 22.1 °C 15.7 °C 1021.6 hPa NNE 3.2 km/h 6.4 km/h 67 % 0.0 mm
21:12 21.8 °C 15.6 °C 1021.6 hPa NNE 3.2 km/h 6.4 km/h 68 % 0.0 mm
21:17 21.6 °C 15.7 °C 1021.6 hPa NNE 3.2 km/h 6.4 km/h 69 % 0.0 mm
21:22 21.4 °C 15.5 °C 1021.6 hPa NNE 1.6 km/h 6.4 km/h 69 % 0.0 mm
21:27 21.2 °C 15.5 °C 1021.6 hPa NNE 3.2 km/h 6.4 km/h 70 % 0.0 mm
21:32 21.0 °C 15.5 °C 1021.6 hPa NNE 3.2 km/h 6.4 km/h 71 % 0.0 mm
21:42 20.7 °C 15.5 °C 1021.6 hPa NNE 3.2 km/h 6.4 km/h 72 % 0.0 mm
21:52 20.3 °C 15.5 °C 1021.6 hPa Calm   4.8 km/h 74 % 0.0 mm
22:02 19.9 °C 15.3 °C 1021.6 hPa Calm   4.8 km/h 75 % 0.0 mm
22:12 19.8 °C 15.2 °C 1021.6 hPa NNE 3.2 km/h 4.8 km/h 75 % 0.0 mm
22:17 19.7 °C 15.3 °C 1021.6 hPa NE 3.2 km/h 4.8 km/h 76 % 0.0 mm
22:22 19.7 °C 15.3 °C 1021.6 hPa Calm   4.8 km/h 76 % 0.0 mm
22:27 19.7 °C 15.3 °C 1021.9 hPa Calm   6.4 km/h 76 % 0.0 mm
22:32 19.7 °C 15.3 °C 1021.9 hPa NE 4.8 km/h 6.4 km/h 76 % 0.0 mm
22:42 19.6 °C 15.3 °C 1021.9 hPa Calm   4.8 km/h 76 % 0.0 mm
22:47 19.5 °C 15.2 °C 1021.9 hPa Calm   4.8 km/h 76 % 0.0 mm
22:52 19.4 °C 15.1 °C 1021.9 hPa North 1.6 km/h 4.8 km/h 76 % 0.0 mm
23:02 19.3 °C 15.2 °C 1021.9 hPa NE 1.6 km/h 3.2 km/h 77 % 0.0 mm
23:12 19.4 °C 15.1 °C 1021.9 hPa NNE 3.2 km/h 6.4 km/h 76 % 0.0 mm
23:17 19.4 °C 15.1 °C 1021.9 hPa NNE 1.6 km/h 6.4 km/h 76 % 0.0 mm
23:22 19.3 °C 15.0 °C 1021.6 hPa NNE 4.8 km/h 6.4 km/h 76 % 0.0 mm
23:27 19.3 °C 15.0 °C 1021.6 hPa Calm   8.0 km/h 76 % 0.0 mm
23:32 19.2 °C 14.9 °C 1021.6 hPa Calm   8.0 km/h 76 % 0.0 mm
23:42 19.2 °C 15.1 °C 1021.9 hPa NNE 1.6 km/h 6.4 km/h 77 % 0.0 mm
23:47 19.0 °C 14.9 °C 1021.9 hPa Calm   6.4 km/h 77 % 0.0 mm
23:57 18.9 °C 15.0 °C 1021.9 hPa Calm   4.8 km/h 78 % 0.0 mm
Meteo18
Compliments of Weather Underground - 4 mb

Script developed by  Jim McMurry - jmcmurry@mwt.net Adapted for the template by  Wim van der Kuil - Leuven-Template.eu

You find our weather info also at:

European Weather Network

Weather Underground

Equipment we use:

Weather-station
Davis Vue

Weather-program
Meteohub

Weather-server
Raspberry PI 2 B+

Provider
1 and 1

Davis Vue

Meteohub

Raspberry PI 2 B+

1 and 1